VIP202 ENGM-ENEV

Flight info

Callsign VIP202
Flight time N/A
Altitude 39000
Route ENGM/01R RIBBE DCT GIGNI DCT SOMUB DCT TUXOT DCT VABOT DCT PENNO
Aircraft B38M/M-SDE1FGHILORVWXY/HB1

Departure

Time N/A
Airport Oslo-Gardermoen International Airport (ENGM)

Arrival

Time 2026-04-28 18:06
Airport Harstad/Narvik Airport (ENEV)
Time Latitude Longitude Altitude Speed Heading
2026-04-28 17:47 67.36058 15.46381 18541 ft 333 kts 19°
2026-04-28 17:47 67.37498 15.47937 18221 ft 332 kts 19°
2026-04-28 17:48 67.40305 15.50979 17630 ft 328 kts 19°
2026-04-28 17:48 67.42397 15.53250 17204 ft 324 kts 19°
2026-04-28 17:48 67.43772 15.54745 16929 ft 322 kts 19°
2026-04-28 17:49 67.54866 15.66880 14736 ft 317 kts 20°
2026-04-28 17:50 67.56912 15.69130 14295 ft 320 kts 20°
2026-04-28 17:50 67.58970 15.71399 13871 ft 320 kts 20°
2026-04-28 17:50 67.61021 15.73663 13428 ft 319 kts 20°
2026-04-28 17:50 67.63058 15.75917 13020 ft 316 kts 20°
2026-04-28 17:51 67.65076 15.78152 12608 ft 313 kts 20°
2026-04-28 17:51 67.67067 15.80363 12233 ft 310 kts 20°
2026-04-28 17:51 67.69051 15.82567 11829 ft 308 kts 20°
2026-04-28 17:51 67.71014 15.84753 11439 ft 305 kts 20°
2026-04-28 17:52 67.72949 15.86912 11175 ft 296 kts 20°
2026-04-28 17:52 67.74804 15.88985 11070 ft 284 kts 20°
2026-04-28 17:52 67.78321 15.92925 10804 ft 265 kts 20°
2026-04-28 17:53 67.79991 15.94800 10634 ft 257 kts 19°
2026-04-28 17:53 67.81067 15.96009 10552 ft 250 kts 19°
2026-04-28 17:53 67.82643 15.97784 10408 ft 243 kts 19°
2026-04-28 17:53 67.84215 15.99555 10137 ft 249 kts 19°
2026-04-28 17:54 67.85829 16.01378 9792 ft 254 kts 20°
2026-04-28 17:54 67.87463 16.03226 9482 ft 256 kts 20°
2026-04-28 17:54 67.89105 16.05085 9205 ft 257 kts 20°
2026-04-28 17:54 67.90755 16.06956 8878 ft 258 kts 20°
2026-04-28 17:55 67.92410 16.08836 8421 ft 261 kts 20°
2026-04-28 17:55 67.94095 16.10758 8022 ft 263 kts 20°
2026-04-28 17:55 67.95751 16.12643 7873 ft 255 kts 20°
2026-04-28 17:55 67.97361 16.14472 7831 ft 252 kts 20°
2026-04-28 17:56 67.98974 16.16305 7783 ft 253 kts 20°
2026-04-28 17:56 68.00596 16.18147 7718 ft 253 kts 20°
2026-04-28 17:56 68.02210 16.19983 7653 ft 252 kts 20°
2026-04-28 17:56 68.03827 16.21824 7589 ft 252 kts 20°
2026-04-28 17:57 68.05418 16.23639 7523 ft 252 kts 20°
2026-04-28 17:57 68.07033 16.25484 7478 ft 253 kts 21°
2026-04-28 17:57 68.08654 16.27338 7391 ft 253 kts 21°
2026-04-28 17:57 68.10271 16.29192 7328 ft 253 kts 21°
2026-04-28 17:58 68.11884 16.31043 7264 ft 249 kts 21°
2026-04-28 17:58 68.13447 16.32839 7179 ft 240 kts 21°
2026-04-28 17:58 68.14951 16.34568 7120 ft 233 kts 21°
2026-04-28 17:58 68.16435 16.36281 7054 ft 232 kts 21°
2026-04-28 17:59 68.17909 16.38003 7019 ft 229 kts 24°
2026-04-28 17:59 68.19285 16.39942 6988 ft 217 kts 25°
2026-04-28 17:59 68.20594 16.41806 6990 ft 212 kts 25°
2026-04-28 17:59 68.21902 16.43656 6908 ft 211 kts 25°
2026-04-28 18:00 68.23201 16.45489 6560 ft 212 kts 25°
2026-04-28 18:00 68.24518 16.47348 6070 ft 215 kts 26°
2026-04-28 18:00 68.25840 16.49212 5680 ft 213 kts 26°
2026-04-28 18:00 68.27138 16.51041 5383 ft 208 kts 27°
2026-04-28 18:01 68.28405 16.52828 5094 ft 203 kts 27°
2026-04-28 18:01 68.29622 16.54546 4796 ft 193 kts 26°
2026-04-28 18:01 68.30790 16.56197 4460 ft 187 kts 26°
2026-04-28 18:01 68.31925 16.57802 4115 ft 182 kts 27°
2026-04-28 18:02 68.33031 16.59369 3789 ft 175 kts 27°
2026-04-28 18:02 68.34114 16.60452 3656 ft 159 kts 12°
2026-04-28 18:02 68.35187 16.61117 3378 ft 157 kts 12°
2026-04-28 18:02 68.36252 16.61768 3050 ft 157 kts 12°
2026-04-28 18:03 68.37316 16.62419 2953 ft 156 kts 10°
2026-04-28 18:03 68.38368 16.63058 2659 ft 151 kts 10°
2026-04-28 18:03 68.39379 16.63668 2385 ft 147 kts 11°
2026-04-28 18:03 68.40372 16.64262 2066 ft 146 kts 11°
2026-04-28 18:04 68.41340 16.64850 1756 ft 144 kts 10°
2026-04-28 18:04 68.42332 16.65462 1449 ft 144 kts 11°
2026-04-28 18:04 68.43290 16.66075 1213 ft 144 kts 13°
2026-04-28 18:04 68.44280 16.66752 939 ft 146 kts 13°
2026-04-28 18:05 68.45261 16.67434 722 ft 146 kts 13°
2026-04-28 18:05 68.45919 16.67875 563 ft 148 kts
2026-04-28 18:05 68.47259 16.68021 282 ft 144 kts 354°
2026-04-28 18:05 68.48256 16.67919 103 ft 138 kts 354°
2026-04-28 18:06 68.49043 16.67825 100 ft 85 kts 358°
2026-04-28 18:06 68.49413 16.67785 95 ft 21 kts 358°
2026-04-28 18:06 68.49493 16.67809 96 ft 10 kts 13°
2026-04-28 18:06 68.49525 16.67797 96 ft 4 kts 307°
2026-04-28 18:07 68.49511 16.67745 94 ft 7 kts 188°
2026-04-28 18:07 68.49430 16.67778 94 ft 15 kts 172°
2026-04-28 18:07 68.49318 16.67795 94 ft 18 kts 178°
2026-04-28 18:07 68.49207 16.67806 97 ft 9 kts 178°
2026-04-28 18:08 68.49173 16.67935 95 ft 13 kts 89°
2026-04-28 18:08 68.49175 16.68128 90 ft 7 kts 96°
2026-04-28 18:08 68.49134 16.68182 92 ft 8 kts 176°
2026-04-28 18:08 68.49062 16.68190 90 ft 12 kts 178°
2026-04-28 18:09 68.48985 16.68200 91 ft 11 kts 177°
2026-04-28 18:09 68.48919 16.68209 91 ft 7 kts 176°
2026-04-28 18:09 68.48891 16.68289 94 ft 6 kts 92°
2026-04-28 18:09 68.48891 16.68409 94 ft 6 kts 88°
2026-04-28 18:10 68.48893 16.68526 96 ft 6 kts 88°
2026-04-28 18:10 68.48893 16.68669 95 ft 10 kts 90°
2026-04-28 18:10 68.48899 16.68797 95 ft 7 kts 52°
2026-04-28 18:10 68.48947 16.68818 95 ft 5 kts 358°
2026-04-28 18:11 68.48972 16.68815 94 ft 3 kts 357°
2026-04-28 18:11 68.48982 16.68814 95 ft 0 kts 357°